COSMOS 1275 DEB, 12662

Orbit data source: Space-Track

COSMOS 1275 DEB, 12662 is space debris in LEO originally from a launch on Thu, 04 Jun 1981 UTC launched from the Plesetsk Missile And Space Complex (PKMTR). Debris objects in space refer to the collection of defunct objects orbiting the Earth. Examples of debris include non-operational satellites, rocket bodies, and fragments generated from explosions, collisions, or faulty payload assembly.

Loading next visibility...
Identifier
12662, 1981-053S
Orbit
LEO
Country
Flag of CISCIS
Related business
Manufacturer
Unknown
Mission
Spacecraft
Bus & Motor
Unknown
Mass
Unknown
Launch date (UTC)
1981-06-04 (44 years ago)
Launch vehicle
Unknown
Launch site
Plesetsk Missile And Space Complex (PKMTR)
Object type
Payload
Rocket body
Debris
Shape & HBR
Unknown shape, 0.6 m
Radar Cross Section
Medium (>0.1 m² and <1 m²)

Expand to show TLE details & history
Last TLE update: 9 hours ago

TLE from 9 hours ago
0 COSMOS 1275 DEB
1 12662U 81053S   25291.06818198  .00000235  00000-0  21813-3 0  9992
2 12662  82.9590  41.3663 0021303 340.0233 193.0319 13.78105251221384
Epoch: 2025-10-18T01:38Z
TLE epoch observation values (Epoch: 2025-10-18T01:38:10.923Z)
Latitude
6.87347°
Longitude
169.16763°
Altitude
988.147 km
Speed
7.35 km/s
True Right ascension
14h 42m 04s
True Declination
6° 50' 02"
Sunlit
Object was in daylight at epoch
Visualization orbit readout
Latitude
Unknown
Longitude
Unknown
Altitude
Unknown
Speed
Unknown
Apparent Right ascension
Unknown
Apparent Declination
Unknown
Sunlit
N/A
Visualization observer readout
Local Sidereal Time
05:49:36
Azimuth
Unknown
Elevation
Unknown
Doppler factor
Unknown
Orbital elements
Apogee altitude
983.408 km
Perigee altitude
952.11 km
Semi-major axis
7,345.896 km
Eccentricity
0.00213
Inclination
82.959°
RAAN
41.3663°
Arg. of periapsis
340.0233°
True anomaly
192.977°
Mean anomaly
193.0319°
Eccentric anomaly
193.00443°
Mean motion
3.44728 °/min
Orbital period
104.43 mins
BSTAR
0.00021813
Loading maneuver chart data...
Computing Atmospheric mass density...

Documentation

Showing up to 5 results
|